Location: *
(44.9308°N, 123.0197°W)
Time: 03:46:07
(UTC+00:00)

CENTAUR R/B - Pass Details

Date: 09 April 2020
Orbit: 761 x 1427 km, 63.5° (Epoch: 24 May)

Event Time Altitude Azimuth Distance (km) Brightness Sun altitude
Exits shadow 12:42:38 12° 260° (W) 2,507 4.0 -10.0°
Maximum altitude 12:47:55 37° 325° (NW) 1,564 3.5 -9.2°
Drops below altitude 10° 12:54:33 10° 31° (NNE) 3,080 5.9 -8.1°
Sets 12:57:48 0° 39° (NE) 4,154 6.9 -7.5°
